Location: Calvera
(42.3882°N, 0.6137°E)
Time: 14:47:46
(UTC+00:00)

Cosmos 1992 Rocket - Pass Details

Date: 28 October 2020
Orbit: 759 x 765 km, 74.0° (Epoch: 24 November)

Event Time Altitude Azimuth Distance (km) Brightness Sun altitude
Exits shadow 05:14:17 - 333° (NNW) 3,143 6.9 -13.9°
Reaches altitude 10° 05:16:32 10° 327° (NNW) 2,300 6.1 -13.4°
Maximum altitude 05:21:25 42° 257° (WSW) 1,074 4.3 -12.5°
Drops below altitude 10° 05:26:17 10° 188° (S) 2,288 6.5 -11.7°
Sets 05:28:45 0° 181° (S) 3,210 7.3 -11.2°
